Morrisville, VT

10:59 AM EDT on October 16, 2019 (GMT -0400)
Morrisville Stowe State

Weather History for KMVL - August, 2019

Change the Weather History Date:

Tuesday, August 13, 2019

  Actual Average Record
Temperature  
Mean Temperature 66 °F 66 °F  
Max Temperature 80 °F 78 °F 90 °F (2002)
Min Temperature 52 °F 54 °F 45 °F (1998)
Degree Days  
Heating Degree Days 0 2  
Month to date heating degree days 17 21  
Since 1 June heating degree days 170 174  
Since 1 July heating degree days 27 51  
Cooling Degree Days 1 3  
Month to date cooling degree days 24 39  
Year to date cooling degree days 206 207  
Since 1 June cooling degree days 205 199  
Growing Degree Days 16 (Base 50)    
Moisture  
Dew Point 61 °F    
Average Humidity 73    
Maximum Humidity 100    
Minimum Humidity 46    
Precipitation  
Precipitation 0.02 in 0.12 in 0.84 in (2014)
Month to date precipitation 1.57 1.80  
Year to date precipitation 25.01 21.53  
Sea Level Pressure  
Sea Level Pressure 29.80 in    
Wind  
Wind Speed 3 mph (NNW)    
Max Wind Speed 15 mph    
Max Gust Speed 21 mph    
Visibility 7 miles    
Events Rain    
T = Trace of Precipitation, MM = Missing Value Source: NWS Daily Summary

Daily Weather History Graph

Daily Weather History Graph

Search for Another Location

Airport or City:

Astronomy

Aug. 13, 2019 Rise Set
Actual Time 5:50 AM EDT 7:59 PM EDT
Civil Twilight 5:18 AM EDT 8:31 PM EDT
Nautical Twilight 4:39 AM EDT 9:10 PM EDT
Astronomical Twilight 3:55 AM EDT 9:53 PM EDT
Moon 7:16 PM EDT (8/13) 3:44 AM EDT (8/13)
Length of Visible Light 15h 12m
Length of Day
14h 08m
Waxing Gibbous, 97% of the Moon is Illuminated
Aug 13
Waxing Gibbous
Aug 15
Full
Aug 23
Last Quarter
Aug 30
New
Sep 5
First Quarter

Hourly Weather History & Observations

Time (EDT) Temp. Dew Point Humidity Pressure Visibility Wind Dir Wind Speed Gust Speed Precip Events Conditions
12:54 AM 66.0 °F 64.0 °F 93% 29.80 in 6.0 mi Calm Calm - 0.06 in Rain Light Rain
1:41 AM 66.0 °F 64.0 °F 93% 29.80 in 9.0 mi ENE 4.6 mph - 0.02 in Rain Light Rain
1:54 AM 64.9 °F 64.0 °F 97% 29.79 in 10.0 mi SSW 3.5 mph - 0.02 in   Overcast
2:54 AM 64.9 °F 63.0 °F 93% 29.78 in 10.0 mi Calm Calm - N/A   Mostly Cloudy
3:54 AM 63.0 °F 62.1 °F 97% 29.77 in 4.0 mi Calm Calm - N/A   Mostly Cloudy
4:54 AM 63.0 °F 62.1 °F 97% 29.78 in 4.0 mi Calm Calm - N/A   Overcast
5:54 AM 63.0 °F 62.1 °F 97% 29.79 in 5.0 mi Calm Calm - N/A   Overcast
6:07 AM 63.0 °F 62.1 °F 97% 29.79 in 1.0 mi Calm Calm - N/A   Overcast
6:25 AM 63.0 °F 62.1 °F 97% 29.79 in 1.8 mi Calm Calm - N/A   Overcast
6:30 AM 63.0 °F 62.1 °F 97% 29.79 in 3.0 mi Calm Calm - N/A   Overcast
6:47 AM 63.0 °F 62.1 °F 97% 29.79 in 1.8 mi Calm Calm - N/A   Overcast
6:52 AM 62.6 °F 62.6 °F 100% 29.79 in 0.8 mi Calm Calm - N/A   Overcast
6:54 AM 63.0 °F 62.1 °F 97% 29.79 in 0.8 mi Calm Calm - N/A   Overcast
7:06 AM 64.0 °F 63.0 °F 96% 29.79 in 1.2 mi Calm Calm - N/A   Overcast
7:09 AM 64.0 °F 63.0 °F 96% 29.80 in 3.0 mi Calm Calm - N/A   Overcast
7:31 AM 64.9 °F 63.0 °F 93% 29.79 in 9.0 mi Calm Calm - N/A   Overcast
7:54 AM 64.9 °F 63.0 °F 93% 29.80 in 10.0 mi Calm Calm - N/A   Overcast
8:03 AM 66.0 °F 64.0 °F 93% 29.80 in 10.0 mi Calm Calm - N/A   Overcast
8:54 AM 66.9 °F 64.0 °F 90% 29.79 in 10.0 mi Calm Calm - N/A   Mostly Cloudy
9:12 AM 70.0 °F 64.9 °F 84% 29.79 in 10.0 mi Calm Calm - N/A   Mostly Cloudy
9:54 AM 70.0 °F 64.9 °F 84% 29.79 in 10.0 mi Calm Calm - N/A   Overcast
10:54 AM 72.0 °F 64.9 °F 78% 29.78 in 10.0 mi Calm Calm - N/A   Mostly Cloudy
11:54 AM 75.0 °F 64.0 °F 69% 29.78 in 10.0 mi Calm Calm - N/A   Scattered Clouds
12:54 PM 77.0 °F 63.0 °F 62% 29.77 in 10.0 mi North 9.2 mph - N/A   Scattered Clouds
1:54 PM 78.1 °F 64.9 °F 64% 29.77 in 10.0 mi NNW 9.2 mph - N/A   Clear
2:54 PM 78.1 °F 61.0 °F 56% 29.75 in 10.0 mi NW 9.2 mph - N/A   Partly Cloudy
3:54 PM 77.0 °F 59.0 °F 54% 29.77 in 10.0 mi North 11.5 mph - N/A   Clear
4:54 PM 75.0 °F 57.0 °F 53% 29.78 in 10.0 mi North 9.2 mph - N/A   Clear
5:54 PM 75.0 °F 55.9 °F 51% 29.78 in 10.0 mi North 9.2 mph - N/A   Clear
6:54 PM 73.0 °F 52.0 °F 48% 29.80 in 10.0 mi NNW 3.5 mph - N/A   Clear
7:54 PM 66.0 °F 55.0 °F 68% 29.82 in 10.0 mi Calm Calm - N/A   Clear
8:54 PM 59.0 °F 55.0 °F 87% 29.84 in 10.0 mi SW 3.5 mph - N/A   Clear
9:54 PM 57.9 °F 55.0 °F 90% 29.86 in 10.0 mi Calm Calm - N/A   Clear
10:54 PM 55.0 °F 53.1 °F 93% 29.86 in 10.0 mi SSW 3.5 mph - N/A   Clear
11:54 PM 55.0 °F 53.1 °F 93% 29.87 in 10.0 mi Calm Calm - N/A   Clear